Regional Weather Roundup
Issued by NWS

Home | Current Version | Previous Version | Text Only | Print | Product List | Glossary Off
Versions: 1 2 3 4 5 6 7 8 9 10 11 12 13 14 15 16 17 18 19 20 21 22 23 24 25 26 27 28 29 30 31 32 33 34 35 36 37 38 39 40 41 42 43 44 45 46 47 48 49 50

000
ASUS43 KMPX 241610
RWRMN
WEATHER ROUNDUP FOR MINNESOTA
NATIONAL WEATHER SERVICE TWIN CITIES/CHANHASSEN MN
1000 AM CST WED DEC 24 2014


NOTE: "FAIR" INDICATES FEW OR NO CLOUDS BELOW 12,000 FEET WITH NO
SIGNIFICANT WEATHER AND/OR OBSTRUCTIONS TO VISIBILITY. N/A MEANS
CURRENT SKY AND/OR WEATHER CONDITIONS ARE NOT AVAILABLE.

MNZ060>063-068>070-241700-
   Twin Cities Metro

CITY           SKY/WX    TMP DP  RH WIND       PRES   REMARKS
TWIN CITIES    CLOUDY    35  30  82 NW7       29.76F WCI  29
ST PAUL        CLOUDY    35  31  85 NW7       29.78R WCI  29
CRYSTAL        CLOUDY    35  31  85 NW6       29.76S WCI  30
BLAINE         CLOUDY    36  36 100 NW9       29.76S
LAKEVILLE      CLOUDY    34  30  86 NW7       29.76S WCI  28
EDEN PRAIRIE   CLOUDY    34  30  85 VRB6      29.76F WCI  29
SOUTH ST PAUL  CLOUDY    36  32  87 NW6       29.76S
LAKE ELMO      CLOUDY    36  32  87 NW7       29.76S
$$
MNZ001>005-007-008-013>017-022>024-027-028-241700-
   Northwest Minnesota

CITY           SKY/WX    TMP DP  RH WIND       PRES   REMARKS
BEMIDJI        CLOUDY    30  30 100 W6        29.74F FOG     WCI  24
HALLOCK        CLOUDY    27  25  93 SW5       29.75F WCI  21
ROSEAU         CLOUDY    30  27  86 W3        29.75S
WARROAD        CLOUDY    30  27  86 SW5       29.75S WCI  25
THIEF RVR FALL CLOUDY    28  27  93 SW9       29.76F WCI  20
CROOKSTON      CLOUDY    28  27  93 SW5       29.78F WCI  23
FOSSTON        CLOUDY    28  27  93 SW3       29.76F FOG
DETROIT LAKES  MIX PCPN  30  30 100 W3        29.77F
MOORHEAD       CLOUDY    28  28 100 W6        29.81S WCI  22
PARK RAPIDS    CLOUDY    32  30  92 W7        29.74F WCI  26
MAHNOMEN       LGT SNOW  29  28  96 W5        29.76F WCI  23
$$
MNZ006-009>011-018-025>026-241700-
   North Central Minnesota

CITY           SKY/WX    TMP DP  RH WIND       PRES   REMARKS
BAUDETTE       CLOUDY    31  30  96 CALM      29.72F
FLAG ISLAND    CLOUDY    30  28  93 CALM      29.73S
INTL FALLS     FOG       32  31  96 CALM      29.72F VSB 1/2
WASKISH        FOG       32  32 100 CALM      29.74F VSB 1/4
BIG FORK       CLOUDY    34  32  93 CALM      29.73F FOG
LONGVILLE      FOG       30  30 100 W3        29.74F VSB 1
GRAND RAPIDS   CLOUDY    32  28  86 NW3       29.73F
CRANE LAKE     CLOUDY    30  30 100 CALM      29.74F
ORR            CLOUDY    32  30  93 CALM      29.70F
COOK           CLOUDY    30  30 100 CALM      29.72F
WALKER         CLOUDY    30  30  99 W3        29.74F
$$
MNZ012-019>021-037-241700-
   Northeast Minnesota

CITY           SKY/WX    TMP DP  RH WIND       PRES   REMARKS
DULUTH         CLOUDY    33  28  81 N7        29.71F WCI  27
ELY            CLOUDY    30  30 100 CALM      29.72F
HIBBING        CLOUDY    33  30  88 SE3       29.72F
EVELETH        CLOUDY    32  32 100 CALM      29.73F
DULUTH HARBOR  CLOUDY    36  30  80 NW7       29.75F
TWO HARBORS    MOSUNNY   36  30  80 CALM      29.70F
SILVER BAY     MOSUNNY   37  30  75 NW3       29.70F
GRAND MARAIS     N/A     36  29  75 E5        29.73R
G MARAIS ARPRT CLOUDY    28  25  86 N6        29.69S WCI  22
$$
MNZ029>031-032-039>041-046>048-054>057-064-241700-
   West Central Minnesota

CITY           SKY/WX    TMP DP  RH WIND       PRES   REMARKS
FERGUS FALLS   CLOUDY    28  28 100 NW7       29.81F FOG     WCI  21
WHEATON        CLOUDY    27  25  93 W8        29.84F WCI  18
MORRIS         CLOUDY    30  28  93 NW13      29.80F WCI  20
ALEXANDRIA     CLOUDY    30  29  96 NW9       29.78F WCI  22
ELBOW LAKE     CLOUDY    28  28 100 NW8       29.79F FOG     WCI  20
WADENA         FOG       28  28 100 W6          N/A  VSB 1/4 WCI  22
GLENWOOD       CLOUDY    30  30 100 W10       29.78F FOG     WCI  21
APPLETON       LGT SNOW  30  28  93 NW12      29.82F WCI  21
BENSON         CLOUDY    30  28  93 N12       29.81F WCI  21
ORTONVILLE     CLOUDY    28  25  86 NW7       29.82F WCI  21
MADISON          N/A     34  30  86 NW12      29.83F WCI  25
WILLMAR        FOG       32  30  93 NW9       29.81F VSB 3/4 WCI  24
$$
MNZ033>034-036-042>043-049>051-058-059-241700-
   Central Minnesota

CITY           SKY/WX    TMP DP  RH WIND       PRES   REMARKS
ST CLOUD       CLOUDY    35  30  82 N6        29.77S WCI  30
SAUK CENTRE    CLOUDY    31  30  99 NW6       29.78F WCI  25
PAYNESVILLE    CLOUDY    29  29 100 W8        29.79F FOG     WCI  21
AITKIN         CLOUDY    36  30  80 NW3       29.74S
PINE RIVER     CLOUDY    30  30 100 CALM      29.78F
BRAINERD       CLOUDY    32  31  96 NW6       29.76F FOG     WCI  26
STAPLES        CLOUDY    30  30 100 NW5       29.76F WCI  25
LONG PRAIRIE   FOG       30  30 100 W6        29.78S VSB 1/4 WCI  24
LITTLE FALLS   CLOUDY    32  32 100 W3        29.77F
LITCHFIELD     CLOUDY    34  34 100 NW6       29.78F WCI  29
BUFFALO        CLOUDY    34  31  88 NW5       29.78F WCI  30
MAPLE LAKE     CLOUDY    34  32  93 NW7       29.78S WCI  28
$$
MNZ037-044-045-052-053-241700-
   East Central Minnesota

CITY           SKY/WX    TMP DP  RH WIND       PRES   REMARKS
PRINCETON      CLOUDY    36  30  80 NW7       29.77S
MORA           CLOUDY    34  32  93 NW6       29.76F WCI  29
CAMBRIDGE      CLOUDY    36  28  75 NW5       29.74F
RUSH CITY      CLOUDY    34  32  92 NW3       29.76S
MOOSE LAKE     CLOUDY    34  32  93 N6        29.72F WCI  29
HINCKLEY       CLOUDY    34  32  93 CALM      29.75S
CLOQUET        CLOUDY    32  30  93 NW10      29.73S WCI  24
MCGREGOR       CLOUDY    32  32 100 NW3       29.75S
$$
MNZ071>073-080-081-089-090-097-098-241700-
   Southwest Minnesota

CITY           SKY/WX    TMP DP  RH WIND       PRES   REMARKS
MONTEVIDEO     CLOUDY    30  30 100 N8        29.83S WCI  23
GRANITE FALLS  CLOUDY    31  29  95 NW9G16    29.83F WCI  23
CANBY          CLOUDY    30  28  90 NW12      29.84F WCI  21
MARSHALL       CLOUDY    30  25  80 N10       29.83S WCI  21
REDWOOD FALLS  CLOUDY    31  30  96 NW12      29.80F FOG     WCI  22
OLIVIA         CLOUDY    30  30 100 NW12      29.80F FOG     WCI  21
PIPESTONE      MIX PCPN  28  28 100 NW8       29.80F WCI  20
WINDOM         LGT SNOW  30  30 100 NW12      29.80S VSB 1   WCI  21
WORTHINGTON    CLOUDY    30 -18  11 NW12      29.82R WCI  21
JACKSON        CLOUDY    32  30  93 NW15      29.80R WCI  22
TRACY          LGT SNOW  31  30  96 NW15      29.82F WCI  20
SLAYTON        CLOUDY    29  28  97 NW10      29.81F FOG     WCI  20
$$
MNZ065>067-074>077-082>085-091>093-241700-
   South Central Minnesota

CITY           SKY/WX    TMP DP  RH WIND       PRES   REMARKS
MANKATO        CLOUDY    34  28  80 NW14      29.78S WCI  24
NEW ULM        CLOUDY    32  30  93 NW8       29.80S WCI  25
FAIRMONT       CLOUDY    32  27  80 NW15G23   29.78S WCI  22
GLENCOE        CLOUDY    35  32  90 NW7       29.78R WCI  29
FARIBAULT      CLOUDY    34  32  93 NW7       29.76F WCI  28
OWATONNA       CLOUDY    34  32  93 NW12      29.76S FOG     WCI  25
ALBERT LEA     CLOUDY    34  34 100 N10G17    29.75R WCI  26
$$
MNZ078>079-086>088-094>096-241700-
   Southeast Minnesota

CITY           SKY/WX    TMP DP  RH WIND       PRES   REMARKS
ROCHESTER      CLOUDY    33  31  92 N10       29.72S WCI  25
RED WING       CLOUDY    36  34  93 NW3       29.74S
STANTON        CLOUDY    36  32  85 NW9       29.75R
DODGE CENTER   CLOUDY    34  34 100 NW12      29.73S WCI  25
WINONA         CLOUDY    36  32  87 NW8       29.71F
AUSTIN         CLOUDY    34  32  93 NW10      29.73S WCI  26
PRESTON        CLOUDY    32  31  94 N13       29.70S WCI  23
$$
ABBREVIATIONS USED IN REMARKS
   TC - TEMPERATURES IN CELSIUS
  WCI - WIND CHILL INDEX
   HX - HEAT INDEX
  VSB - VISIBILITY
$$


USA.gov is the U.S. government's official web portal to all federal, state and local government web resources and services.